Regional Weather Roundup
Issued by NWS Upton, NY

Current Version | Previous Version | Text Only | Print | Product List | Glossary On
Versions: 1 2 3 4 5 6 7 8 9 10 11 12 13 14 15 16 17 18 19 20 21 22 23 24 25 26 27 28 29 30 31 32 33 34 35 36 37 38 39 40 41 42 43 44 45 46 47 48 49 50
000
ASUS41 KOKX 030808
RWROKX

REGIONAL WEATHER ROUNDUP
NATIONAL WEATHER SERVICE NEW YORK NY
400 AM EDT SUN MAY 03 2015

NOTE: "FAIR" INDICATES FEW OR NO CLOUDS BELOW 12,000 FEET WITH NO
SIGNIFICANT WEATHER AND/OR OBSTRUCTIONS TO VISIBILITY.

NYZ071-072-176-178-NJZ106-104-030900-
NEW YORK CITY METRO AREA


CITY           SKY/WX    TMP DP  RH WIND       PRES   REMARKS
CENTRAL PARK   CLEAR     52  34  50 W5        30.07R
LAGUARDIA APRT PTCLDY    52  36  54 SW6       30.04S
KENNEDY INTL   PTCLDY    47  39  74 SW7       30.06R
NEWARK/LIBERTY PTCLDY    50  38  63 CALM      30.05R
BRNX BOT. GARD   N/A     52  34  50 S2        30.05S
TETERBORO      CLEAR     48  38  68 CALM      30.04R
$$

NYZ177-179-078>081-030900-
LONG ISLAND NEW YORK

CITY           SKY/WX    TMP DP  RH WIND       PRES   REMARKS
FARMINGDALE    CLEAR     44  39  82 CALM      30.05S
ISLIP          CLEAR     44  39  82 CALM      30.04R
SHIRLEY        CLEAR     41  38  89 CALM      30.06S
WESTHAMPTON    CLEAR     32  29  88 CALM      30.06F
MONTAUK POINT    N/A     47  42  83 W5        30.06R
$$

NYZ052-065-067-030900-
HUDSON VALLEY

CITY           SKY/WX    TMP DP  RH WIND       PRES   REMARKS
WHITE PLAINS   CLEAR     43  38  82 CALM      30.03S
NEWBURGH       CLEAR     45  41  87 CALM      30.03S
MONTGOMERY     PTCLDY    42  40  92 CALM      30.02R
POUGHKEEPSIE   CLEAR     45  39  79 CALM      30.02S
ALBANY         PTCLDY    49  37  63 CALM      30.00R
$$

NJZ001-105-106-008-010-013-015-019>022-104-030900-
NEW JERSEY

CITY           SKY/WX    TMP DP  RH WIND       PRES   REMARKS
NEWARK/LIBERTY PTCLDY    50  38  63 CALM      30.05R
TETERBORO      CLEAR     48  38  68 CALM      30.04R
CALDWELL       CLEAR     43  39  86 CALM      30.05R
MORRISTOWN     CLEAR     41  39  93 CALM      30.05R FOG
SOMERVILLE     PTCLDY    43  39  86 CALM      30.04R
SUSSEX         PTCLDY    45  41  86 CALM      30.05R
ANDOVER          N/A     45  42  89 SW3       30.04R
TRENTON        MOCLDY    47  38  71 CALM      30.04S
MILLVILLE      MOCLDY    50  46  86 CALM      30.03S
ATLANTIC CITY  CLOUDY    50  40  68 S7        30.04S
WRIGHTSTOWN    CLOUDY    44  41  89 CALM      30.03R
TOMS RIVER     CLOUDY    37  36  93 N3        30.06R
BELMAR         CLOUDY    46  36  66 SW3       30.04F
$$

PAZ047>061-062-071-030900-
EASTERN PENNSYLVANIA

CITY           SKY/WX    TMP DP  RH WIND       PRES   REMARKS
PHILADELPHIA   MOCLDY    51  44  77 E5        30.05R
ALLENTOWN      CLEAR     45  42  89 NE6       30.04R
SCRANTON       CLEAR     49  31  49 E7        30.03S
$$

CTZ002-004>006-009-010-012-RIZ004-006-007-MAZ004-011-015-030900-
SOUTHERN NEW ENGLAND
 IN CT

CITY           SKY/WX    TMP DP  RH WIND       PRES   REMARKS
BRADLEY INTL   PTCLDY    47  38  71 S8        30.00R
HARTFORD       CLEAR     46  37  71 S5        30.03R
DANBURY        CLEAR     41  34  76 CALM      30.04S
WTRBRY/OXFORD  NOT AVBL
BRIDGEPORT     CLEAR     48  42  80 SW3       30.04S
MERIDEN        MOCLDY    42  37  82 S3        30.03S
NEW HAVEN      MOCLDY    48  40  73 SW5       30.04S
CHESTER        FAIR      45  37  76 SW7       30.03S
GROTON         CLEAR     45  41  86 SW3       30.04R
WILLIMANTIC    CLOUDY    44  39  82 CALM      30.03R

 IN RI

CITY           SKY/WX    TMP DP  RH WIND       PRES   REMARKS
PROVIDENCE     PTCLDY    43  37  79 S3        30.03S
BLOCK ISLAND   PTCLDY    45  37  76 W6        30.04S
WESTERLY       CLOUDY    45  41  86 CALM      30.05R

 IN MA

CITY           SKY/WX    TMP DP  RH WIND       PRES   REMARKS
BOSTON         MOCLDY    47  39  74 S9        30.01S
WORCESTER      CLOUDY    48  37  65 SW9       29.99S
WESTFIELD      PTCLDY    47  39  74 S3        30.00R
PROVINCETOWN   CLEAR     41  39  93 S6        30.04R
NANTUCKET      CLEAR     38  36  92 CALM      30.04S
$$

ANZ330-335-338-340-345-350-353-355-030900-
COASTAL MARINE OBSERVATIONS


STATION/POSITION TIME  SKY/WX   TEMP    WIND        PRES    VSBY  WAVE
                                AIR SEA DIR/SP/G                  HT/PER
                 (UTC)          (F)     (DEG/KT/KT) (MB)    (MI)  (FT/S)
NY HARB ENTRANCE 0750            49 50  240/  6/  8 1017.3          5/ 8
4S FIRE IS       0703               47                N/A           5/ 8
20S FIRE ISLAND  0750            46 46  240/  4/  6 1017.7          5/ 9
GREAT SOUTH BAY  0700            50 56  280/  8/ 10   N/A
23SW MTP         0750            44 43  270/  2/  4 1017.6          5/ 8
HUDSON CANYON    NOT AVBL
EXECUTION ROCKS  NOT AVBL
WESTERN LI SOUND NOT AVBL
CENTRAL LI SOUND NOT AVBL
EASTERN LI SOUND 0700            45     240/  4/  6   N/A
ROBBINS REEF     0700            50     220/  5/  6 1016.3
$$


>>>>>>>>>>>>>>>>>>>>>>>>>>>> KEY <<<<<<<<<<<<<<<<<<<<<<<<<<<
>                                                          <
>     SKY/WX - SKY CONDITION/PRESENT WEATHER               <
>     TMP    - TEMPERATURE IN FAHRENHEIT                   <
>     DP     - DEWPOINT IN FAHRENHEIT                      <
>     RH     - RELATIVE HUMIDITY IN PERCENT                <
>     WIND   - DIRECTION AND SPEED IN MPH                  <
>     PRES   - MEAN SEA LEVEL PRESSURE IN INCHES OF HG     <
>     WCI    - WIND CHILL INDEX                            <
>     VSB    - VISIBILITY IN MILES                         <
>     HX     - HEAT INDEX                                  <
>     TC     - TEMPERATURE IN CELSIUS                      <
>     VRB    - VARIABLE WIND DIRECTION                     <
>                                                          <
>>>>>>>>>>>>>>>>>>>>>>>>>>>> KEY <<<<<<<<<<<<<<<<<<<<<<<<<<<





USA.gov is the U.S. government's official web portal to all federal, state and local government web resources and services.